Regional Weather Roundup
Issued by NWS

Home | Current Version | Previous Version | Text Only | Print | Product List | Glossary Off
Versions: 1 2 3 4 5 6 7 8 9 10 11 12 13 14 15 16 17 18 19 20 21 22 23 24 25 26 27 28 29 30 31 32 33 34 35 36 37 38 39 40 41 42 43 44 45 46 47 48 49 50

000
ASUS43 KOAX 010202
RWRNE

WEATHER ROUNDUP FOR NEBRASKA
NATIONAL WEATHER SERVICE OMAHA NE
900 PM CDT FRI OCT 31 2014

NOTES: SATELLITE DATA IS BEING USED TO AUGMENT CLOUD COVER ABOVE
       12000 FEET.
       "FAIR" INDICATES FEW OR NO CLOUDS BELOW 12,000 FEET WITH NO
       SIGNIFICANT WEATHER AND/OR OBSTRUCTIONS TO VISIBILITY.

  * THESE STATIONS DO NOT REPORT WEATHER SUCH AS RAIN...SNOW OR FOG.

NEZ001>004-019>022-054>056-010300-
NEBRASKA PANHANDLE

CITY           SKY/WX    TMP DP  RH WIND       PRES   REMARKS
SCOTTSBLUFF    PTCLDY    42  30  62 E14       30.09S
ALLIANCE       PTCLDY    39  24  55 S20       30.13S WCI  29
CHADRON        PTCLDY    46  27  47 S15G25    30.03F
KIMBALL        PTCLDY    44  28  52 S17       30.10F
SIDNEY         CLEAR     40  26  57 S20G26    30.15F WCI  30
$$

NEZ057>060-069>072-079>082-010300-
SOUTHWEST NEBRASKA

CITY           SKY/WX    TMP DP  RH WIND       PRES   REMARKS
NORTH PLATTE   PTCLDY    36  14  40 SE10      30.29F WCI  28
IMPERIAL       PTCLDY    37  18  46 SE15      30.25F WCI  28
LEXINGTON      CLEAR     35  15  44 SE9       30.35S WCI  28
MCCOOK         CLEAR     35  13  40 E8        30.33F WCI  29
OGALLALA       CLEAR     39  19  44 SE9G16    30.23F WCI  33
$$

NEZ005>010-023>029-035>040-094-010300-
NORTH CENTRAL NEBRASKA

CITY           SKY/WX    TMP DP  RH WIND       PRES   REMARKS
VALENTINE      PTCLDY    38  12  34 S16       30.23F WCI  29
AINSWORTH      PTCLDY    36  13  39 S15G23    30.26F WCI  26
BROKEN BOW     PTCLDY    34  16  47 MISG      30.32F
O`NEILL        PTCLDY    32  15  48 SE9       30.36S WCI  25
ORD            PTCLDY    33  15  47 SE8       30.36S WCI  26
THEDFORD       CLEAR     37  13  36 S15       30.27F WCI  28
$$

NEZ041-046>049-061>064-073>077-083>087-010300-
SOUTH CENTRAL NEBRASKA

CITY           SKY/WX    TMP DP  RH WIND       PRES   REMARKS
GRAND ISLAND   PTCLDY    31  17  56 SE5       30.41S WCI  26
AURORA         PTCLDY    28  15  58 SE7       30.40F WCI  21
HASTINGS       PTCLDY    33  14  45 SE9       30.39F WCI  25
HEBRON         CLEAR     30  15  53 CALM      30.44S
HOLDREGE       CLEAR     32  15  49 SE9       30.36F WCI  24
KEARNEY *      CLEAR     28  14  54 SE8       30.38S WCI  20
YORK           PTCLDY    32  18  55 SE7       30.42F WCI  26
$$

NEZ011>018-030>034-042>045-010300-
NORTHEAST NEBRASKA

CITY           SKY/WX    TMP DP  RH WIND       PRES   REMARKS
NORFOLK        CLOUDY    34  18  52 SE7       30.41S WCI  28
ALBION         PTCLDY    28  17  63 CALM      30.40S
BLAIR          PTCLDY    35  20  55 E6        30.43F WCI  30
FREMONT        PTCLDY    34  22  61 CALM      30.45S
TEKAMAH        PTCLDY    32  18  56 E3        30.45F
WAYNE          PTCLDY    29  20  68 SE3       30.43F
$$

NEZ050>053-065>068-078-088>093-010300-
SOUTHEAST NEBRASKA

CITY           SKY/WX    TMP DP  RH WIND       PRES   REMARKS
LINCOLN        PTCLDY    35  18  49 CALM      30.46S
OMAHA EPPLEY   MOCLDY    37  21  52 E6        30.47S WCI  32
BEATRICE       PTCLDY    32  19  58 CALM      30.44S
FALLS CITY     PTCLDY    34  17  50 CALM      30.45S
NEBRASKA CITY  PTCLDY    35  14  43 NE3       30.45S
PLATTSMOUTH    PTCLDY    34  17  49 E5        30.45S WCI  30
$$

NEZ044-045-051>053-067-010300-
OMAHA AREA

CITY           SKY/WX    TMP DP  RH WIND       PRES   REMARKS
OMAHA EPPLEY   MOCLDY    37  21  52 E6        30.47S WCI  32
BLAIR          PTCLDY    35  20  55 E6        30.43F WCI  30
FREMONT        PTCLDY    34  22  61 CALM      30.45S
MILLARD        MOCLDY    34  24  66 CALM      30.45F
OFFUTT AFB     PTCLDY    31  22  71 NE5       30.45S WCI  26
PLATTSMOUTH    PTCLDY    34  17  49 E5        30.45S WCI  30
WAHOO          FAIR      33  17  52 CALM      30.45S
$$



USA.gov is the U.S. government's official web portal to all federal, state and local government web resources and services.